Location: Makanda
(37.6176°N, 89.2090°W)
Time: 11:47:55
(UTC+00:00)

Cosmos 1656 - Pass Details

Date: 23 September 2019
Orbit: 799 x 849 km, 71.1° (Epoch: 18 October)

Event Time Altitude Azimuth Distance (km) Brightness Sun altitude
Exits shadow 10:31:40 -1° 199° (SSW) 3,463 6.6 -15.3°
Rises 10:31:51 0° 199° (SSW) 3,393 6.5 -15.3°
Reaches altitude 10° 10:34:16 10° 199° (SSW) 2,464 5.8 -14.8°
Maximum altitude 10:39:57 87° 113° (ESE) 854 3.7 -13.7°
Drops below altitude 10° 10:45:39 10° 23° (NNE) 2,472 6.6 -12.6°
Sets 10:48:06 0° 23° (NNE) 3,406 7.3 -12.1°
